Weather History for KPNM - May, 2009

Change the Weather History Date:

Wednesday, May 13, 2009

  Actual Average (KSTC) Record (KSTC)
Temperature  
Mean Temperature 64 °F 56 °F  
Max Temperature 73 °F 68 °F 93 °F (2007)
Min Temperature 55 °F 43 °F 24 °F (1997)
Degree Days  
Heating Degree Days 1 10  
Month to date heating degree days 152  
Since 1 July heating degree days 8319  
Cooling Degree Days 0 1  
Month to date cooling degree days 5  
Year to date cooling degree days 7  
Growing Degree Days 14 (Base 50)    
Moisture  
Dew Point 48 °F    
Average Humidity 65    
Maximum Humidity 94    
Minimum Humidity 27    
Precipitation  
Precipitation 0.02 in 0.09 in 1.67 in (1942)
Month to date precipitation 1.23  
Year to date precipitation 6.59  
Snow  
Snow 0.00 in 0.00 in - ()
Month to date snowfall 0.0  
Since 1 July snowfall 45.7  
Snow Depth -    
Sea Level Pressure  
Sea Level Pressure 29.54 in    
Wind  
Wind Speed 15 mph (SSW)    
Max Wind Speed 21 mph    
Max Gust Speed 34 mph    
Visibility 9 miles    
Events Rain    
T = Trace of Precipitation, MM = Missing Value Source: NWS Daily Summary

Daily Weather History Graph

Daily Weather History Graph

Search for Another Location

Airport or City:

Trip Planner

Search our weather history database for the weather conditions in past years. The results will help you decide how hot, cold, wet, or windy it might be!

Date:

Astronomy

May. 13, 2009 Rise Set
Actual Time 5:45 AM CDT 8:36 PM CDT
Civil Twilight 5:11 AM CDT 9:11 PM CDT
Nautical Twilight 4:27 AM CDT 9:55 PM CDT
Astronomical Twilight 3:36 AM CDT 10:47 PM CDT
Moon 12:21 AM CDT (5/13) 8:50 AM CDT (5/13)
Length of Visible Light 15h 59m
Length of Day
14h 50m
Waning Gibbous, 82% of the Moon is Illuminated
May 13
Waning Gibbous
May 17
Last Quarter
May 24
New
May 30
First Quarter
Jun 7
Full

Hourly Weather History & Observations

Time (CDT) Temp. Dew Point Humidity Pressure Visibility Wind Dir Wind Speed Gust Speed Precip Events Conditions
12:13 AM 60.8 °F 51.8 °F 72% 29.63 in 10.0 mi SSE 20.7 mph 29.9 mph N/A   Overcast
12:33 AM 60.8 °F 51.8 °F 72% 29.62 in 10.0 mi SSE 16.1 mph 24.2 mph N/A   Overcast
12:53 AM 60.8 °F 51.8 °F 72% 29.64 in 10.0 mi South 11.5 mph 19.6 mph N/A   Overcast
1:13 AM 60.8 °F 51.8 °F 72% 29.63 in 10.0 mi SSE 15.0 mph 20.7 mph N/A   Overcast
1:33 AM 57.2 °F 53.6 °F 88% 29.61 in 5.0 mi SSE 13.8 mph 21.9 mph N/A Rain Light Rain
1:53 AM 55.4 °F 53.6 °F 94% 29.62 in 5.0 mi SSE 13.8 mph 19.6 mph N/A Rain Light Rain
2:13 AM 55.4 °F 53.6 °F 94% 29.62 in 4.0 mi SSE 16.1 mph - N/A Rain Light Rain
2:33 AM 55.4 °F 53.6 °F 94% 29.60 in 5.0 mi SE 12.7 mph - N/A Rain Light Rain
2:53 AM 55.4 °F 53.6 °F 94% 29.59 in 5.0 mi SE 18.4 mph 23.0 mph N/A   Light Drizzle
3:13 AM 55.4 °F 53.6 °F 94% 29.57 in 5.0 mi SSE 16.1 mph 24.2 mph N/A   Overcast
3:33 AM 55.4 °F 53.6 °F 94% 29.56 in 7.0 mi SE 17.3 mph 23.0 mph 0.01 in   Overcast
3:53 AM 55.4 °F 53.6 °F 94% 29.57 in 10.0 mi SSE 18.4 mph 23.0 mph 0.01 in   Overcast
4:13 AM 55.4 °F 53.6 °F 94% 29.55 in 5.0 mi SSE 15.0 mph 25.3 mph N/A Rain Rain
4:33 AM 55.4 °F 53.6 °F 94% 29.54 in 5.0 mi SSE 13.8 mph 23.0 mph N/A   Light Drizzle
4:53 AM 55.4 °F 53.6 °F 94% 29.53 in 7.0 mi SSE 18.4 mph 23.0 mph 0.01 in   Overcast
5:13 AM 55.4 °F 53.6 °F 94% 29.52 in 5.0 mi SSE 15.0 mph 23.0 mph N/A   Light Drizzle
5:33 AM 55.4 °F 53.6 °F 94% 29.51 in 7.0 mi SSE 18.4 mph 24.2 mph N/A   Overcast
5:53 AM 55.4 °F 53.6 °F 94% 29.51 in 7.0 mi SSE 19.6 mph 24.2 mph N/A   Overcast
6:33 AM 55.4 °F 53.6 °F 94% 29.52 in 10.0 mi South 12.7 mph 25.3 mph N/A   Overcast
6:53 AM 55.4 °F 53.6 °F 94% 29.53 in 10.0 mi SSE 10.4 mph 17.3 mph N/A   Overcast
7:13 AM 57.2 °F 55.4 °F 94% 29.53 in 7.0 mi South 13.8 mph - N/A   Overcast
7:33 AM 57.2 °F 55.4 °F 94% 29.53 in 7.0 mi South 11.5 mph 18.4 mph N/A Rain Rain
7:53 AM 57.2 °F 55.4 °F 94% 29.53 in 7.0 mi South 12.7 mph 21.9 mph N/A   Overcast
8:13 AM 57.2 °F 55.4 °F 94% 29.53 in 7.0 mi South 10.4 mph 17.3 mph N/A   Overcast
8:33 AM 57.2 °F 55.4 °F 94% 29.52 in 7.0 mi South 12.7 mph - N/A   Overcast
8:53 AM 59.0 °F 55.4 °F 88% 29.52 in 7.0 mi South 9.2 mph - N/A   Overcast
9:13 AM 60.8 °F 57.2 °F 88% 29.51 in 10.0 mi South 9.2 mph - N/A   Overcast
9:33 AM 60.8 °F 57.2 °F 88% 29.51 in 10.0 mi South 10.4 mph - N/A   Overcast
9:53 AM 62.6 °F 57.2 °F 82% 29.51 in 10.0 mi South 10.4 mph - N/A   Mostly Cloudy
10:13 AM 64.4 °F 57.2 °F 77% 29.52 in 10.0 mi SSW 11.5 mph - N/A   Mostly Cloudy
10:33 AM 66.2 °F 57.2 °F 73% 29.52 in 10.0 mi WSW 10.4 mph - N/A   Mostly Cloudy
10:53 AM 66.2 °F 53.6 °F 64% 29.51 in 10.0 mi SW 11.5 mph 18.4 mph N/A   Scattered Clouds
11:13 AM 69.8 °F 55.4 °F 60% 29.51 in 10.0 mi WSW 9.2 mph 17.3 mph N/A   Clear
11:33 AM 69.8 °F 51.8 °F 53% 29.52 in 10.0 mi WSW 15.0 mph 18.4 mph N/A   Clear
11:53 AM 69.8 °F 46.4 °F 43% 29.51 in 10.0 mi WSW 11.5 mph 20.7 mph N/A   Clear
12:13 PM 71.6 °F 44.6 °F 38% 29.51 in 10.0 mi SW 15.0 mph 18.4 mph N/A   Clear
12:33 PM 71.6 °F 42.8 °F 35% 29.51 in 10.0 mi West 16.1 mph 20.7 mph N/A   Clear
12:53 PM 71.6 °F 42.8 °F 35% 29.50 in 10.0 mi WSW 10.4 mph - N/A   Clear
1:13 PM 71.6 °F 41.0 °F 33% 29.50 in 10.0 mi WSW 12.7 mph - N/A   Clear
1:33 PM 71.6 °F 42.8 °F 35% 29.52 in 10.0 mi SW 6.9 mph - N/A   Clear
1:53 PM 71.6 °F 39.2 °F 31% 29.54 in 10.0 mi SSW 12.7 mph 18.4 mph N/A   Clear
2:13 PM 69.8 °F 41.0 °F 35% 29.53 in 10.0 mi SW 12.7 mph 19.6 mph N/A   Scattered Clouds
2:33 PM 73.4 °F 41.0 °F 31% 29.52 in 10.0 mi SW 13.8 mph 20.7 mph N/A   Scattered Clouds
2:53 PM 73.4 °F 39.2 °F 29% 29.51 in 10.0 mi SW 15.0 mph 21.9 mph N/A   Clear
3:13 PM 73.4 °F 37.4 °F 27% 29.51 in 10.0 mi WSW 17.3 mph 23.0 mph N/A   Clear
3:33 PM 73.4 °F 39.2 °F 29% 29.52 in 10.0 mi SW 16.1 mph 27.6 mph N/A   Clear
3:53 PM 71.6 °F 39.2 °F 31% 29.51 in 10.0 mi SW 15.0 mph 24.2 mph N/A   Clear
4:13 PM 71.6 °F 41.0 °F 33% 29.51 in 10.0 mi WSW 13.8 mph 23.0 mph N/A   Scattered Clouds
4:33 PM 71.6 °F 39.2 °F 31% 29.51 in 10.0 mi West 15.0 mph 24.2 mph N/A   Scattered Clouds
4:53 PM 71.6 °F 39.2 °F 31% 29.51 in 10.0 mi WSW 15.0 mph 25.3 mph N/A   Scattered Clouds
5:13 PM 71.6 °F 39.2 °F 31% 29.51 in 10.0 mi West 15.0 mph 24.2 mph N/A   Scattered Clouds
5:33 PM 71.6 °F 37.4 °F 29% 29.50 in 10.0 mi West 13.8 mph 24.2 mph N/A   Scattered Clouds
5:53 PM 71.6 °F 35.6 °F 27% 29.50 in 10.0 mi WSW 19.6 mph 26.5 mph N/A   Clear
6:13 PM 69.8 °F 33.8 °F 27% 29.50 in 10.0 mi West 19.6 mph 28.8 mph N/A   Clear
6:33 PM 68.0 °F 35.6 °F 30% 29.51 in 10.0 mi West 19.6 mph 27.6 mph N/A   Scattered Clouds
6:53 PM 64.4 °F 37.4 °F 37% 29.53 in 10.0 mi West 19.6 mph 27.6 mph N/A   Scattered Clouds
7:13 PM 60.8 °F 41.0 °F 48% 29.57 in 4.0 mi West 17.3 mph 34.5 mph N/A Rain Light Rain
7:33 PM 60.8 °F 35.6 °F 39% 29.56 in 10.0 mi West 13.8 mph 24.2 mph N/A   Scattered Clouds
7:53 PM 60.8 °F 33.8 °F 36% 29.55 in 10.0 mi WSW 15.0 mph 24.2 mph N/A   Clear
8:13 PM 60.8 °F 32.0 °F 34% 29.56 in 10.0 mi West 17.3 mph 25.3 mph N/A   Clear
8:33 PM 60.8 °F 28.4 °F 29% 29.57 in 10.0 mi WSW 24.2 mph 29.9 mph N/A   Clear
8:53 PM 57.2 °F 28.4 °F 33% 29.57 in 10.0 mi West 16.1 mph 26.5 mph N/A   Clear
9:13 PM 55.4 °F 30.2 °F 38% 29.57 in 10.0 mi West 15.0 mph 21.9 mph N/A   Clear
9:33 PM 55.4 °F 33.8 °F 44% 29.59 in 10.0 mi West 24.2 mph 32.2 mph N/A   Clear
9:53 PM 53.6 °F 35.6 °F 51% 29.59 in 10.0 mi West 15.0 mph 26.5 mph N/A   Clear
10:13 PM 51.8 °F 35.6 °F 54% 29.60 in 10.0 mi West 11.5 mph 18.4 mph N/A   Mostly Cloudy
10:33 PM 51.8 °F 35.6 °F 54% 29.61 in 10.0 mi West 10.4 mph 18.4 mph N/A   Scattered Clouds
10:53 PM 50.0 °F 35.6 °F 58% 29.61 in 10.0 mi West 6.9 mph - N/A   Scattered Clouds
11:13 PM 48.2 °F 35.6 °F 62% 29.61 in 10.0 mi West 8.1 mph - N/A   Scattered Clouds
11:33 PM 50.0 °F 35.6 °F 58% 29.62 in 10.0 mi WSW 8.1 mph - N/A   Clear
11:53 PM 50.0 °F 37.4 °F 62% 29.63 in 10.0 mi West 10.4 mph 19.6 mph N/A   Clear